Preview of NWS' New Version of Forecast
This preview is not operational and should not be used for support decisions.

Regional Weather Roundup (RWR)

Issued by National Weather Service (NWS)

                            
000
ASUS44 KMEG 210810
RWRTN 
TENNESSEE HOURLY STATE WEATHER ROUNDUP
NATIONAL WEATHER SERVICE MEMPHIS TN
300 AM CDT SUN JUL 21 2019

TNZ002-004-019-021-049-052-054-088>092-210900-
WEST TENNESSEE
  
CITY           SKY/WX    TMP DP  RH WIND       PRES   REMARKS
MEMPHIS INTL   FAIR      76  75  97 S3        29.97F                  
NWS MEMPHIS      N/A     76 N/A N/A MISG        N/A                   
JACKSON        FAIR      74  73  97 S3        29.99R                  
DYERSBURG      FAIR      75  74  96 CALM      29.97F                  
SOMERVILLE     CLOUDY    75  73  94 S5        29.97S                  
COVINGTON      PTCLDY    75  73  94 CALM      29.96F                  
UNION CITY     PTCLDY    77  75  94 S7        29.93F                  
BOLIVAR        CLOUDY    75  73  94 S3        29.98S                  
PARIS          PTCLDY    75  75 100 SE5       29.97S                  
HUNTINGDON     CLEAR     75  73  94 S5        29.97S                  
LEXINGTON      CLOUDY    75  73  94 CALM      29.98S                  
SELMER         CLOUDY    75  73  94 SW6       29.99R                  
SAVANNAH       CLOUDY    75  73  94 S7        30.00R                  
$$

TNZ008-025-027-028-033-062-065-066-210900-
NORTH MIDDLE TENNESSEE
  
CITY           SKY/WX    TMP DP  RH WIND       PRES   REMARKS
NASHVILLE      PTCLDY    72  72 100 SE3       30.01S                  
PORTLAND       CLEAR     72  72 100 S3        29.99S                  
CLARKSVILLE    FAIR      74  70  87 SW6       29.98F                  
LEBANON        SUNNY     73  72  94 CALM      29.98S                  
SMYRNA         FAIR      71  70  96 SE5       30.02R                  
MURFREESBORO   CLOUDY    73  73 100 CALM      30.00R                  
COOKEVILLE     MOCLDY    72  70  94 CALM      30.02F                  
LIVINGSTON     MOSUNNY   72  70  94 SW5       30.02S                  
GALLATIN       SUNNY     72  72 100 CALM      30.02S                  
CROSSVILLE     MOCLDY    70  69  97 W3        30.08R                  
ROCKWOOD       CLOUDY    72  72 100 SW3       30.05S FOG              
$$

TNZ061-075-076-078-094-096-097-210900-
SOUTH MIDDLE TENNESSEE
  
CITY           SKY/WX    TMP DP  RH WIND       PRES   REMARKS
LAWRENCEBURG   CLOUDY    73  72  94 VRB3      30.02R                  
LEWISBURG      CLOUDY    73  72  94 CALM      30.01S                  
FAYETTEVILLE   CLOUDY    73  73 100 S6        30.02F                  
TULLAHOMA      CLOUDY    73  72  94 CALM      30.02F                  
WINCHESTER     MOCLDY    73  72  94 CALM      30.03F                  
MCMINNVILLE    MOCLDY    72  70  94 CALM      30.02S                  
COLUMBIA       CLOUDY    73  73 100 CALM      30.00R                  
SHELBYVILLE    PTCLDY    73  72  94 CALM      30.01F                  
$$

TNZ017-018-042-046-047-210900-
NORTHEAST TENNESSEE
  
CITY           SKY/WX    TMP DP  RH WIND       PRES   REMARKS
TRI CITIES     MOCLDY    72  70  93 CALM      30.05F                  
ELIZABETHTON   FAIR      70  70 100 CALM      30.05F                  
GREENEVILLE    SUNNY     72  70  94 E3        30.05S                  
$$

TNZ012-013-036-069-073-074-210900-
CENTRAL EAST TENNESSEE
  
CITY           SKY/WX    TMP DP  RH WIND       PRES   REMARKS
KNOXVILLE      FAIR      74  72  93 CALM      30.01S                  
OAK RIDGE      MOCLDY    75  72  90 CALM      30.04                   
DOWNTOWN KNOXV CLOUDY    75  75 100 CALM      30.03S FOG              
GATLINBURG     CLOUDY    73  73 100 CALM      30.02F FOG              
MORRISTOWN     PTCLDY    72  72 100 CALM      30.04R                  
JACKSBORO      CLOUDY    73  73 100 NE3       30.05F                  
$$

TNZ083-085-099-210900-
SOUTHEAST TENNESSEE
  
CITY           SKY/WX    TMP DP  RH WIND       PRES   REMARKS
CHATTANOOGA    FAIR      76  73  91 S5        30.02R                  
DAYTON         CLOUDY    75  75 100 CALM      30.02R FOG              
$$

SKY/WX REPORTED AS FAIR MEANS FEW OR NO CLOUDS BELOW
12 THOUSAND FEET.